DW9936 Weather Reports


time (UTC)temp
C
wind
direction
speed
KPH
gust
KPH
rain 1hr
cm
rain 24hr
cm
rain mn
cm
humidity
%
barometer
mb
20260502163054 23 123 0.0 6.4 0.00 0.00 0.00 30 1019.3
20260502161555 23 240 0.0 4.8 0.00 0.00 0.00 29 1019.4
20260502151536 25 92 0.0 4.8 0.00 0.00 0.00 26 1020.1
20260502123017 24 142 0.0 6.4 0.00 0.00 0.00 29 1022.1
20260502121513 24 284 0.0 6.4 0.00 0.00 0.00 31 1022.4
20260502114510 24 112 0.0 8.0 0.00 0.00 0.00 30 1022.7
20260502113006 23 321 0.0 4.8 0.00 0.00 0.00 32 1023.0
20260502111503 23 148 0.0 3.2 0.00 0.00 0.00 32 1023.2
20260502110001 23 210 0.0 4.8 0.00 0.00 0.00 31 1023.4
20260502104558 22 245 0.0 6.4 0.00 0.00 0.00 33 1023.5
20260502103056 22 107 1.6 8.0 0.00 0.00 0.00 34 1023.7
20260502101601 22 98 0.0 6.4 0.00 0.00 0.00 33 1023.9
20260502071509 17 155 0.0 1.6 0.00 0.00 0.00 52 1025.5
20260502070005 16 105 0.0 1.6 0.00 0.00 0.00 54 1025.6
20260502064601 15 189 0.0 1.6 0.00 0.00 0.00 56 1025.6
20260502063057 15 185 0.0 1.6 0.00 0.00 0.00 58 1025.7
20260502061551 13 129 0.0 1.6 0.00 0.00 0.00 59 1025.8
20260502060053 12 124 0.0 1.6 0.00 0.00 0.00 62 1025.8
20260502054543 11 44 0.0 1.6 0.00 0.00 0.00 65 1025.8
20260502053040 10 42 0.0 0.0 0.00 0.00 0.00 71 1025.9
20260502051537 8 355 0.0 1.6 0.00 0.00 0.00 74 1026.0
20260502050042 7 355 0.0 0.0 0.00 0.00 0.00 78 1025.9
20260502044537 6 18 0.0 0.0 0.00 0.00 0.00 80 1025.9
20260502043037 6 14 0.0 0.0 0.00 0.00 0.00 82 1025.8
20260502041530 5 15 0.0 0.0 0.00 0.00 0.00 82 1025.7
20260502040028 5 15 0.0 0.0 0.00 0.00 0.00 80 1025.7
20260502034526 5 15 0.0 0.0 0.00 0.00 0.00 80 1025.6
20260502033027 5 15 0.0 1.6 0.00 0.00 0.00 81 1025.6
20260502031524 5 279 0.0 0.0 0.00 0.00 0.00 79 1025.5
20260502030024 5 279 0.0 0.0 0.00 0.00 0.00 78 1025.5
20260502024526 6 279 0.0 0.0 0.00 0.00 0.00 77 1025.5
20260502023019 6 279 0.0 0.0 0.00 0.00 0.00 75 1025.5
20260502021516 7 279 0.0 0.0 0.00 0.00 0.00 74 1025.5
20260502020013 7 279 0.0 0.0 0.00 0.00 0.00 73 1025.5
20260502014510 8 279 0.0 0.0 0.00 0.00 0.00 71 1025.5
20260502013010 8 279 0.0 0.0 0.00 0.00 0.00 71 1025.5
20260502011505 8 279 0.0 0.0 0.00 0.00 0.00 70 1025.6
20260502010010 8 328 0.0 0.0 0.00 0.00 0.00 70 1025.8
20260502004503 8 323 0.0 1.6 0.00 0.00 0.00 69 1025.8
20260502003100 8 310 0.0 0.0 0.00 0.00 0.00 69 1025.9
20260502001559 8 310 0.0 0.0 0.00 0.00 0.00 68 1025.9
20260502000100 9 310 0.0 0.0 0.00 0.00 0.00 66 1026.0
20260501234557 10 310 0.0 0.0 0.00 0.00 0.00 65 1026.1
20260501233051 10 310 0.0 1.6 0.00 0.00 0.00 64 1026.2
20260501231554 10 224 0.0 1.6 0.00 0.00 0.00 65 1026.1
20260501230047 10 333 0.0 0.0 0.00 0.00 0.00 65 1026.1
20260501224544 10 322 0.0 0.0 0.00 0.00 0.00 64 1026.1
20260501223040 11 322 0.0 0.0 0.00 0.00 0.00 61 1026.1
20260501221551 11 322 0.0 1.6 0.00 0.00 0.00 59 1026.0
20260501220041 11 321 0.0 4.8 0.00 0.00 0.00 59 1026.1
20260501214543 11 320 0.0 0.0 0.00 0.00 0.00 60 1026.0
20260501213035 12 320 0.0 0.0 0.00 0.00 0.00 59 1026.0
20260501211535 12 319 0.0 0.0 0.00 0.00 0.00 59 1026.0
20260501210034 12 323 0.0 0.0 0.00 0.00 0.00 58 1026.0
20260501204534 12 323 0.0 0.0 0.00 0.00 0.00 57 1026.0
20260501203033 12 320 0.0 0.0 0.00 0.00 0.00 58 1026.0
20260501201533 12 320 0.0 0.0 0.00 0.00 0.00 57 1026.0
20260501200038 13 320 0.0 0.0 0.00 0.00 0.00 56 1025.9
20260501194538 13 320 0.0 0.0 0.00 0.00 0.00 55 1025.8
20260501193036 13 320 0.0 0.0 0.00 0.00 0.00 54 1025.9
20260501191540 13 320 0.0 0.0 0.00 0.00 0.00 52 1025.8
20260501190041 15 320 0.0 1.6 0.00 0.00 0.00 50 1025.7
20260501184530 15 320 0.0 0.0 0.00 0.00 0.00 48 1025.6
20260501183030 16 320 0.0 0.0 0.00 0.00 0.00 47 1025.5
20260501181531 17 320 0.0 0.0 0.00 0.00 0.00 43 1025.5